Tracking 20715 objects as of 27-May-2020
HD Live streaming from Space Station
objects crossing your sky now

FREGAT R/B

Track FREGAT R/B now!


NORAD ID: 37345
Int'l Code: 2011-001B
Perigee: 34,430.4 km
Apogee: 35,769.9 km
Inclination: 6.1 °
Period: 1,400.8 minutes
Semi major axis: 41471 km
RCS: 8.569 m2 (large)
Launch date: January 20, 2011
Source: Commonwealth of Independent States (former USSR) (CIS)
Launch site: TYURATAM MISSILE AND SPACE COMPLEX (TTMTR)

Note: This is a ROCKET BODY
aabbcc
Your satellite tracking list
Your tracking list is empty




NASA's NSSDC Master Catalog

Two Line Element Set (TLE):
1 37345U 11001B   20147.59163420 +.00000014 +00000-0 +00000-0 0  9994
2 37345 006.0689 057.5828 0161498 016.4528 180.2253 01.02797975037652
Source of the keplerian elements: AFSPC